Overview Statistics Trail Chart Weather Telemetry Raw packets
 

This is the latest recevied weather packets stored in our database for station/object W7BTL. If no packets are shown the sender has not sent any weather packets the latest 10 day(s).

<< 52 53 54 55 56 57 58 >>
Time Temp. Humidity Pressure Rain* Wind** Luminosity Snow
1788306947 27.78° C 48% 1013.6 hPa 0 mm - 324 W/m² -
1788306643 27.78° C 48% 1013.4 hPa 0 mm - 342 W/m² -
1788306342 27.22° C 49% 1013.4 hPa 0 mm - 364 W/m² -
1788306037 27.78° C 49% 1013.5 hPa 0 mm - 384 W/m² -
1788305737 27.78° C 49% 1013.5 hPa 0 mm - 395 W/m² -
1788305433 28.33° C 49% 1013.5 hPa 0 mm - 428 W/m² -
1788305128 28.89° C 46% 1013.3 hPa 0 mm - 450 W/m² -
1788304823 28.89° C 47% 1013.4 hPa 0 mm - 472 W/m² -
1788304520 28.33° C 46% 1013.4 hPa 0 mm - 494 W/m² -
1788304216 28.89° C 45% 1013.4 hPa 0 mm - 517 W/m² -
1788303915 28.89° C 46% 1013.5 hPa 0 mm - 537 W/m² -
1788303611 28.89° C 46% 1013.4 hPa 0 mm - 560 W/m² -
1788303306 28.89° C 45% 1013.4 hPa 0 mm - 580 W/m² -
1788303000 29.44° C 45% 1013.6 hPa 0 mm - 605 W/m² -
1788302696 30° C 45% 1013.5 hPa 0 mm - 620 W/m² -
1788302392 29.44° C 44% 1013.5 hPa 0 mm - 641 W/m² -
1788302088 29.44° C 45% 1013.6 hPa 0 mm - 661 W/m² -
1788301783 29.44° C 46% 1013.6 hPa 0 mm - 679 W/m² -
1788301479 29.44° C 45% 1013.8 hPa 0 mm - 701 W/m² -
1788301175 29.44° C 45% 1013.7 hPa 0 mm - 716 W/m² -
1788300871 29.44° C 46% 1013.7 hPa 0 mm - 735 W/m² -
1788300570 30° C 45% 1013.7 hPa 0 mm - 750 W/m² -
1788300270 30° C 44% 1013.8 hPa 0 mm - 771 W/m² -
1788299968 30° C 45% 1013.8 hPa 0 mm - 783 W/m² -
1788299367 29.44° C 45% 1013.9 hPa 0 mm - 813 W/m² -

* Rain latest hour (hover to see other rain measurements)
** Current wind speed in m/s (hover to see current wind gust speed)